GW6889 Weather Reports


time (UTC)temp
F
wind
direction
speed
knots
gust
knots
rain 1hr
in
rain 24hr
in
rain mn
in
humidity
%
barometer
mb
20260509162009 67 352 0.9 4.3 0.00 0.00 0.00 56 1005.0
20260509161524 67 157 0.9 4.3 0.00 0.00 0.00 58 1005.0
20260509161011 67 281 0.9 3.5 0.00 0.00 0.00 58 1005.0
20260509160507 66 161 0.9 6.1 0.00 0.00 0.00 61 1004.9
20260509160022 66 341 1.7 6.1 0.00 0.00 0.00 58 1005.1
20260509155503 66 219 0.9 4.3 0.00 0.00 0.00 64 1005.2
20260509155005 65 128 0.0 3.5 0.00 0.00 0.00 65 1005.2
20260509154515 64 352 0.0 5.2 0.00 0.00 0.00 64 1005.1
20260509154005 64 234 0.0 6.1 0.00 0.00 0.00 64 1005.1
20260509153507 64 234 1.7 6.1 0.00 0.00 0.00 65 1005.1
20260509153030 64 185 0.9 3.5 0.00 0.00 0.00 68 1005.2
20260509152508 63 160 0.0 3.5 0.00 0.00 0.00 69 1005.2
20260509152011 63 138 0.0 2.6 0.00 0.00 0.00 68 1005.2
20260509151523 62 244 0.9 2.6 0.00 0.00 0.00 70 1005.3
20260509151013 61 255 0.0 3.5 0.00 0.00 0.00 72 1005.3
20260509150509 61 220 0.9 5.2 0.00 0.00 0.00 71 1005.3
20260509150026 61 142 0.0 5.2 0.00 0.00 0.00 71 1005.2
20260509145507 61 186 0.0 1.7 0.00 0.00 0.00 73 1005.2
20260509145004 60 205 0.0 5.2 0.00 0.00 0.00 75 1005.2
20260509144514 60 28 0.0 5.2 0.00 0.00 0.00 73 1005.3
20260509144004 60 196 0.9 1.7 0.00 0.00 0.00 73 1005.3
20260509143509 60 188 0.9 3.5 0.00 0.00 0.00 74 1005.3
20260509143019 60 302 0.9 5.2 0.00 0.00 0.00 76 1005.2
20260509142504 59 221 0.9 5.2 0.00 0.00 0.00 76 1005.0
20260509142005 59 242 0.0 2.6 0.00 0.00 0.00 78 1005.0
20260509141524 58 208 0.0 4.3 0.00 0.00 0.00 77 1005.1
20260509141011 58 130 0.0 4.3 0.00 0.00 0.00 77 1005.1
20260509140509 58 144 0.9 2.6 0.00 0.00 0.00 79 1005.3
20260509140026 58 256 0.9 3.5 0.00 0.00 0.00 78 1005.2
20260509135509 58 350 0.0 3.5 0.00 0.00 0.00 79 1005.1
20260509135010 57 173 0.9 3.5 0.00 0.00 0.00 80 1005.1
20260509134528 57 271 0.9 5.2 0.00 0.00 0.00 80 1005.0
20260509134009 57 226 0.9 5.2 0.00 0.00 0.00 80 1004.8
20260509133504 57 209 0.0 2.6 0.00 0.00 0.00 81 1004.9
20260509133020 56 300 0.9 3.5 0.00 0.00 0.00 82 1004.9
20260509132508 56 294 0.0 3.5 0.00 0.00 0.00 83 1005.0
20260509132010 56 243 0.9 4.3 0.00 0.00 0.00 83 1005.0
20260509131523 55 239 0.9 7.0 0.00 0.00 0.00 84 1005.2
20260509131006 55 244 0.9 7.0 0.00 0.00 0.00 85 1005.1
20260509130512 55 231 1.7 4.3 0.00 0.00 0.00 86 1005.1
20260509130051 54 218 0.0 3.5 0.00 0.00 0.00 87 1005.0
20260509125506 54 225 0.9 3.5 0.00 0.00 0.00 88 1005.0
20260509125008 54 258 0.0 1.7 0.00 0.00 0.00 89 1005.1
20260509124532 53 219 0.0 3.5 0.00 0.00 0.00 89 1005.0
20260509124009 53 242 0.9 6.1 0.00 0.00 0.00 89 1005.0
20260509123508 53 166 0.0 6.1 0.00 0.00 0.00 90 1005.0
20260509123019 52 236 0.9 4.3 0.00 0.00 0.00 90 1005.0
20260509122505 52 223 0.0 4.3 0.00 0.00 0.00 91 1005.1
20260509122006 52 229 0.0 7.0 0.00 0.00 0.00 91 1005.1
20260509121518 52 189 0.9 7.0 0.00 0.00 0.00 91 1004.8
20260509121008 52 178 0.9 6.1 0.00 0.00 0.00 91 1004.9
20260509120506 52 238 2.6 6.1 0.00 0.00 0.00 91 1005.0
20260509120029 51 244 0.0 4.3 0.00 0.00 0.00 91 1005.0
20260509115510 51 257 0.9 5.2 0.00 0.00 0.00 91 1004.9
20260509115009 51 246 1.7 6.1 0.00 0.00 0.00 91 1005.0
20260509114529 51 227 0.9 6.1 0.00 0.00 0.00 91 1004.8
20260509114008 51 266 0.9 4.3 0.00 0.00 0.00 91 1004.8
20260509113513 51 150 0.9 5.2 0.00 0.00 0.00 91 1004.8
20260509113025 51 284 1.7 5.2 0.00 0.00 0.00 91 1004.7
20260509112510 51 241 0.0 2.6 0.00 0.00 0.00 91 1004.5
20260509112008 51 155 0.0 2.6 0.00 0.00 0.00 91 1004.6
20260509111518 51 243 0.9 2.6 0.00 0.00 0.00 91 1004.6
20260509111007 51 260 0.0 1.7 0.00 0.00 0.00 91 1004.8
20260509110505 51 346 0.9 2.6 0.00 0.00 0.00 91 1004.8
20260509110026 51 233 0.9 3.5 0.00 0.00 0.00 91 1004.4
20260509105508 51 265 0.0 3.5 0.00 0.00 0.00 91 1004.5
20260509105010 51 227 0.9 4.3 0.00 0.00 0.00 91 1004.4
20260509104526 51 173 0.9 4.3 0.00 0.00 0.00 91 1004.4
20260509104007 51 226 0.9 4.3 0.00 0.00 0.00 91 1004.4
20260509103513 51 257 0.9 4.3 0.00 0.00 0.00 91 1004.4
20260509103026 51 163 0.0 3.5 0.00 0.00 0.00 91 1004.4
20260509102512 51 166 0.0 3.5 0.00 0.00 0.00 91 1004.3
20260509102012 51 215 0.9 3.5 0.00 0.00 0.00 91 1004.3
20260509101534 51 247 0.0 1.7 0.00 0.00 0.00 91 1004.3
20260509101008 51 215 0.0 4.3 0.00 0.00 0.00 91 1004.4
20260509100507 51 208 0.9 4.3 0.00 0.00 0.00 91 1004.5
20260509100021 51 222 0.9 2.6 0.00 0.00 0.00 91 1004.6
20260509095507 51 205 0.0 2.6 0.00 0.00 0.00 91 1004.6
20260509095007 51 247 0.9 2.6 0.00 0.00 0.00 91 1004.7
20260509094531 50 185 0.0 2.6 0.00 0.00 0.00 91 1004.6
20260509094007 50 186 0.9 2.6 0.00 0.00 0.00 91 1004.7
20260509093508 50 196 0.0 2.6 0.00 0.00 0.00 90 1004.6
20260509093025 50 227 0.0 1.7 0.00 0.00 0.00 90 1004.8
20260509092510 50 186 0.0 4.3 0.00 0.00 0.00 90 1004.9
20260509092010 50 220 0.0 4.3 0.00 0.00 0.00 90 1005.0
20260509091531 50 244 0.0 1.7 0.00 0.00 0.00 90 1005.0
20260509091009 50 234 0.0 1.7 0.00 0.00 0.00 90 1005.0
20260509090511 50 265 0.0 1.7 0.00 0.00 0.00 90 1005.0
20260509090028 50 184 0.0 3.5 0.00 0.00 0.00 90 1005.0
20260509085506 50 244 0.0 3.5 0.00 0.00 0.00 90 1005.1
20260509085007 50 190 0.0 2.6 0.00 0.00 0.00 90 1005.0
20260509084524 50 255 0.9 2.6 0.00 0.00 0.00 90 1005.2
20260509084008 50 246 0.9 2.6 0.00 0.00 0.00 90 1005.2
20260509083508 50 173 0.0 1.7 0.00 0.00 0.00 89 1005.2
20260509083025 50 192 0.0 1.7 0.00 0.00 0.00 89 1005.2
20260509082509 50 215 0.0 1.7 0.00 0.00 0.00 89 1005.2
20260509082010 50 269 0.0 1.7 0.00 0.00 0.00 89 1005.1
20260509081528 50 211 0.0 1.7 0.00 0.00 0.00 89 1005.2
20260509081010 50 254 0.0 1.7 0.00 0.00 0.00 89 1005.2
20260509080509 50 277 0.0 1.7 0.00 0.00 0.00 89 1005.1
20260509080030 50 236 0.0 1.7 0.00 0.00 0.00 88 1005.1
20260509075508 50 205 0.0 1.7 0.00 0.00 0.00 88 1005.1
20260509075007 50 242 0.9 1.7 0.00 0.00 0.00 88 1005.2
20260509074520 50 162 0.0 1.7 0.00 0.00 0.00 88 1005.2
20260509074008 50 171 0.0 1.7 0.00 0.00 0.00 88 1005.3
20260509073505 51 230 0.0 1.7 0.00 0.00 0.00 87 1005.4
20260509073026 51 231 0.0 1.7 0.00 0.00 0.00 87 1005.4
20260509072512 51 169 0.0 1.7 0.00 0.00 0.00 87 1005.3
20260509072008 51 178 0.0 1.7 0.00 0.00 0.00 87 1005.4
20260509071525 51 192 0.0 1.7 0.00 0.00 0.00 87 1005.6
20260509071012 51 189 0.0 1.7 0.00 0.00 0.00 87 1005.7
20260509070508 51 203 0.0 1.7 0.00 0.00 0.00 86 1005.7
20260509070026 51 178 0.0 1.7 0.00 0.00 0.00 86 1005.9
20260509065510 51 156 0.0 1.7 0.00 0.00 0.00 86 1006.0
20260509065012 52 210 0.0 2.6 0.00 0.00 0.00 85 1006.0
20260509064527 52 235 0.0 2.6 0.00 0.00 0.00 85 1006.0
20260509064011 52 211 0.0 1.7 0.00 0.00 0.00 85 1006.0
20260509063508 52 227 0.9 4.3 0.00 0.00 0.00 85 1006.0
20260509063033 52 177 0.0 4.3 0.00 0.00 0.00 85 1006.0
20260509062513 52 245 0.0 1.7 0.00 0.00 0.00 85 1006.1
20260509062009 52 244 0.0 2.6 0.00 0.00 0.00 85 1006.1
20260509061529 53 150 0.0 2.6 0.00 0.00 0.00 84 1006.3
20260509061011 53 211 0.0 2.6 0.00 0.00 0.00 84 1006.3
20260509060508 53 252 0.0 3.5 0.00 0.00 0.00 84 1006.3
20260509060028 53 144 0.0 3.5 0.00 0.00 0.00 83 1006.2
20260509055509 53 234 0.0 2.6 0.00 0.00 0.00 83 1006.5
20260509055009 53 249 0.9 2.6 0.00 0.00 0.00 83 1006.4
20260509054529 53 235 0.0 2.6 0.00 0.00 0.00 83 1006.5
20260509054014 53 212 0.0 1.7 0.00 0.00 0.00 83 1006.5
20260509053511 54 232 0.0 2.6 0.00 0.00 0.00 83 1006.6
20260509053028 54 240 0.0 2.6 0.00 0.00 0.00 82 1006.6
20260509052509 54 259 0.0 2.6 0.00 0.00 0.00 82 1006.6
20260509052010 54 148 0.0 5.2 0.00 0.00 0.00 82 1006.6
20260509051523 54 181 0.0 5.2 0.00 0.00 0.00 82 1006.5
20260509051007 54 252 0.0 1.7 0.00 0.00 0.00 82 1006.5
20260509050510 54 198 0.9 2.6 0.00 0.00 0.00 81 1006.4
20260509050028 55 211 0.0 2.6 0.00 0.00 0.00 81 1006.5
20260509045508 55 153 0.0 3.5 0.00 0.00 0.00 80 1006.6
20260509045005 55 244 0.9 3.5 0.00 0.00 0.00 80 1006.5
20260509044515 55 250 0.0 3.5 0.00 0.00 0.00 80 1006.5
20260509044004 55 169 0.9 3.5 0.00 0.00 0.00 79 1006.4
20260509043507 55 168 0.9 2.6 0.00 0.00 0.00 79 1006.4
20260509043029 55 180 0.0 2.6 0.00 0.00 0.00 78 1006.5
20260509042508 55 196 0.0 4.3 0.00 0.00 0.00 77 1006.5
20260509042007 56 196 0.9 4.3 0.00 0.00 0.00 76 1006.6
20260509041528 56 229 0.9 2.6 0.00 0.00 0.00 76 1006.6
20260509041008 56 250 0.0 1.7 0.00 0.00 0.00 75 1006.6
20260509040514 56 250 0.0 3.5 0.00 0.00 0.00 74 1006.6
20260509040010 56 241 0.9 6.1 0.00 0.00 0.00 73 1006.7
20260509035504 56 173 0.9 6.1 0.00 0.00 0.00 72 1006.7
20260509035005 56 146 0.9 2.6 0.00 0.00 0.00 72 1006.8
20260509034512 57 204 0.9 2.6 0.00 0.00 0.00 71 1006.8
20260509034004 57 209 0.9 5.2 0.00 0.00 0.00 71 1006.8
20260509033505 57 246 0.0 5.2 0.00 0.00 0.00 70 1006.7
20260509033018 57 174 0.0 5.2 0.00 0.00 0.00 70 1006.7
20260509032509 57 167 0.9 6.1 0.00 0.00 0.00 70 1006.8
20260509032012 58 142 1.7 6.1 0.00 0.00 0.00 69 1006.8
20260509031528 58 190 0.9 4.3 0.00 0.00 0.00 70 1006.8
20260509031010 58 244 0.0 2.6 0.00 0.00 0.00 70 1006.8
20260509030509 58 175 0.0 2.6 0.00 0.00 0.00 70 1006.8
20260509030026 58 205 0.0 3.5 0.00 0.00 0.00 70 1006.7
20260509025507 58 209 0.0 3.5 0.00 0.00 0.00 69 1006.8
20260509025004 58 151 0.0 3.5 0.00 0.00 0.00 69 1006.8
20260509024512 58 238 0.9 3.5 0.00 0.00 0.00 68 1006.8
20260509024004 58 189 0.0 3.5 0.00 0.00 0.00 67 1006.8
20260509023503 59 191 0.0 2.6 0.00 0.00 0.00 65 1006.8
20260509023025 59 167 0.0 4.3 0.00 0.00 0.00 63 1006.7
20260509022504 59 199 0.0 4.3 0.00 0.00 0.00 61 1006.8
20260509022007 59 212 0.9 4.3 0.00 0.00 0.00 59 1006.7
20260509021522 59 185 0.9 2.6 0.00 0.00 0.00 58 1006.7
20260509021006 59 237 0.0 1.7 0.00 0.00 0.00 57 1006.7
20260509020507 59 181 0.0 1.7 0.00 0.00 0.00 57 1006.7
20260509020023 59 181 0.0 1.7 0.00 0.00 0.00 57 1006.5
20260509015514 59 183 0.0 1.7 0.00 0.00 0.00 57 1006.5
20260509015008 59 182 0.0 0.9 0.00 0.00 0.00 57 1006.4
20260509014537 59 182 0.0 0.9 0.00 0.00 0.00 57 1006.4
20260509014003 60 183 0.0 1.7 0.00 0.00 0.00 56 1006.4
20260509013507 60 185 0.0 0.9 0.00 0.00 0.00 56 1006.5
20260509013016 60 184 0.0 0.9 0.00 0.00 0.00 55 1006.4
20260509012507 61 184 0.0 1.7 0.00 0.00 0.00 54 1006.5
20260509012009 61 184 0.0 1.7 0.00 0.00 0.00 53 1006.4
20260509011520 61 194 0.0 1.7 0.00 0.00 0.00 53 1006.4
20260509011008 62 161 0.0 1.7 0.00 0.00 0.00 52 1006.3
20260509010507 62 213 0.0 1.7 0.00 0.00 0.00 52 1006.2
20260509010031 62 230 0.0 1.7 0.00 0.00 0.00 52 1006.3
20260509005510 62 200 0.0 4.3 0.00 0.00 0.00 51 1006.4
20260509005010 63 200 0.9 4.3 0.00 0.00 0.00 50 1006.3
20260509004527 63 244 0.0 1.7 0.00 0.00 0.00 51 1006.4
20260509004010 63 171 0.0 3.5 0.00 0.00 0.00 50 1006.4
20260509003513 63 236 0.0 5.2 0.00 0.00 0.00 50 1006.4
20260509003011 64 222 0.9 5.2 0.00 0.00 0.00 48 1006.4
20260509002506 64 252 0.0 5.2 0.00 0.00 0.00 49 1006.4
20260509002008 64 240 0.0 4.3 0.00 0.00 0.00 48 1006.4
20260509001520 64 247 0.0 3.5 0.00 0.00 0.00 49 1006.4
20260509001004 64 218 0.0 1.7 0.00 0.00 0.00 47 1006.4
20260509000508 64 240 0.0 1.7 0.00 0.00 0.00 49 1006.5
20260509000026 64 159 0.0 1.7 0.00 0.00 0.00 48 1006.5
20260508235510 64 197 0.0 1.7 0.00 0.00 0.00 48 1006.5
20260508235009 64 207 0.0 2.6 0.00 0.00 0.00 49 1006.5
20260508234526 64 199 0.0 2.6 0.00 0.00 0.00 50 1006.6
20260508234016 64 243 0.9 2.6 0.00 0.00 0.00 50 1006.6
20260508233516 64 164 0.0 2.6 0.00 0.00 0.00 47 1006.7
20260508233028 64 215 0.0 6.1 0.00 0.00 0.00 47 1006.6
20260508232509 64 194 0.0 6.1 0.00 0.00 0.00 47 1006.6
20260508232003 65 228 0.0 6.1 0.00 0.00 0.00 47 1006.6
20260508231515 65 218 1.7 4.3 0.00 0.00 0.00 44 1006.6
20260508231009 65 234 0.9 5.2 0.00 0.00 0.00 45 1006.6
20260508230508 65 224 1.7 5.2 0.00 0.00 0.00 47 1006.6
20260508230022 65 140 0.0 4.3 0.00 0.00 0.00 45 1006.6
20260508225508 65 164 0.9 4.3 0.00 0.00 0.00 48 1006.7
20260508225008 65 217 0.9 2.6 0.00 0.00 0.00 48 1006.8
20260508224524 65 282 0.0 4.3 0.00 0.00 0.00 46 1006.8
20260508224010 66 239 0.9 4.3 0.00 0.00 0.00 48 1006.8
20260508223508 66 136 0.0 3.5 0.00 0.00 0.00 47 1006.8
20260508223032 66 179 0.0 1.7 0.00 0.00 0.00 47 1006.9
20260508222508 67 137 1.7 3.5 0.00 0.00 0.00 46 1006.9
20260508222013 66 151 0.9 4.3 0.00 0.00 0.00 49 1006.8
20260508221530 66 224 0.9 4.3 0.00 0.00 0.00 46 1006.8
20260508221005 67 207 0.0 5.2 0.00 0.00 0.00 47 1006.9
20260508220503 67 290 0.9 5.2 0.00 0.00 0.00 46 1006.9
20260508215508 67 217 1.7 5.2 0.00 0.01 0.00 45 1007.0
20260508215009 67 197 0.0 2.6 0.00 0.01 0.00 48 1007.0
20260508214521 66 146 0.0 2.6 0.00 0.01 0.00 52 1007.1
20260508214009 68 155 0.9 4.3 0.00 0.01 0.00 43 1007.1
20260508213510 68 224 0.9 4.3 0.00 0.01 0.00 43 1007.0
20260508213034 68 175 0.0 1.7 0.00 0.01 0.00 47 1007.1
20260508212508 66 249 0.0 1.7 0.00 0.01 0.00 48 1007.2
20260508212012 65 280 0.9 1.7 0.00 0.01 0.00 46 1007.2
20260508211530 66 190 0.9 3.5 0.00 0.01 0.00 46 1007.2
20260508211012 66 233 1.7 3.5 0.00 0.01 0.00 44 1007.3
20260508210506 66 163 0.9 3.5 0.00 0.01 0.00 43 1007.2
20260508210030 67 250 1.7 3.5 0.00 0.01 0.00 43 1007.3
20260508205507 65 227 0.9 3.5 0.00 0.01 0.00 45 1007.3
20260508205008 65 248 0.0 3.5 0.00 0.01 0.00 49 1007.3
20260508204524 66 261 0.9 3.5 0.00 0.01 0.00 45 1007.3
20260508204010 67 137 0.9 2.6 0.00 0.01 0.00 44 1007.3
20260508203509 69 241 0.0 2.6 0.00 0.01 0.00 47 1007.4
20260508203027 68 196 0.9 5.2 0.00 0.01 0.00 44 1007.5
20260508202510 68 149 0.9 5.2 0.00 0.01 0.00 45 1007.5
20260508202010 69 164 0.9 3.5 0.00 0.01 0.00 41 1007.5
20260508201532 70 189 0.9 2.6 0.00 0.01 0.00 44 1007.6
20260508201006 69 236 0.0 2.6 0.00 0.01 0.00 43 1007.6
20260508200511 68 168 0.0 2.6 0.00 0.01 0.00 41 1007.7
20260508200028 68 163 0.9 2.6 0.00 0.01 0.00 41 1007.8
20260508195506 68 318 0.9 3.5 0.00 0.01 0.00 38 1007.9
20260508195006 69 65 0.0 3.5 0.00 0.01 0.00 42 1008.1
20260508194521 68 341 0.0 3.5 0.00 0.01 0.00 44 1008.2
20260508194009 69 184 0.0 2.6 0.00 0.01 0.00 43 1008.1
20260508193508 68 17 1.7 2.6 0.00 0.01 0.00 44 1008.1
20260508193028 68 194 0.0 2.6 0.00 0.01 0.00 46 1008.3
20260508192509 67 42 0.9 2.6 0.00 0.01 0.00 41 1008.3
20260508192013 67 218 0.9 2.6 0.00 0.01 0.00 47 1008.3
20260508191528 67 167 0.9 2.6 0.00 0.01 0.00 46 1008.3
20260508191011 69 352 0.0 2.6 0.00 0.01 0.00 45 1008.3
20260508190506 69 231 0.0 2.6 0.00 0.01 0.00 48 1008.5
20260508190033 69 255 0.0 2.6 0.00 0.01 0.00 52 1008.6
20260508185508 66 319 0.9 4.3 0.00 0.01 0.00 46 1008.7
20260508185010 67 177 1.7 4.3 0.00 0.01 0.00 52 1008.8
20260508184525 65 265 0.0 1.7 0.00 0.01 0.00 55 1008.9
20260508184007 64 224 0.0 2.6 0.00 0.01 0.00 52 1008.9
20260508183508 64 223 0.0 2.6 0.00 0.01 0.00 52 1009.0
20260508183026 64 240 0.9 2.6 0.00 0.01 0.00 52 1009.0
20260508182510 64 245 0.0 2.6 0.00 0.01 0.00 47 1009.1
20260508182010 64 119 0.9 1.7 0.00 0.01 0.00 52 1009.2
20260508181538 64 90 0.9 1.7 0.00 0.01 0.00 51 1009.3
20260508181010 63 196 0.9 1.7 0.00 0.01 0.00 56 1009.3
20260508180511 64 191 0.0 1.7 0.00 0.01 0.00 52 1009.3
20260508180026 64 195 0.9 2.6 0.00 0.01 0.00 45 1009.3
20260508175511 66 206 0.9 2.6 0.00 0.01 0.00 50 1009.4
20260508175013 66 137 0.9 2.6 0.00 0.01 0.00 52 1009.5
20260508174536 66 260 0.0 3.5 0.00 0.01 0.00 51 1009.5
20260508174009 66 163 0.9 3.5 0.00 0.01 0.00 48 1009.6
20260508173505 66 263 0.9 2.6 0.00 0.01 0.00 54 1009.6
20260508173029 64 179 0.9 2.6 0.00 0.01 0.00 58 1009.7
20260508172509 64 157 0.9 5.2 0.00 0.01 0.00 57 1009.8
20260508172008 63 81 2.6 5.2 0.00 0.01 0.00 56 1009.8
20260508171524 65 173 0.9 3.5 0.00 0.01 0.00 58 1009.9
20260508171012 64 93 1.7 3.5 0.00 0.01 0.00 59 1009.9
20260508170509 63 136 0.9 3.5 0.00 0.01 0.00 60 1010.0
20260508170026 61 92 0.0 2.6 0.00 0.01 0.00 61 1010.0
20260508165513 62 155 0.9 2.6 0.00 0.01 0.00 59 1010.1
20260508165012 64 221 0.0 1.7 0.00 0.01 0.00 59 1010.3
20260508164518 63 64 0.9 1.7 0.00 0.01 0.00 61 1010.3
20260508164004 61 216 0.0 1.7 0.00 0.01 0.00 63 1010.4
20260508163508 62 71 0.0 2.6 0.00 0.01 0.00 59 1010.4
20260508163032 62 155 0.9 2.6 0.00 0.01 0.00 59 1010.5
20260508162506 62 155 0.9 2.6 0.00 0.01 0.00 60 1010.7